Temperature
-11 -11 -11 -11 -11 -12 -12 -13 -13 -14 -13 -12 -11 -10 -10 -10 -9 -9 -8 -7 -7 -6 -5 -5 -4 -4 -3 -2 -1 2 4 6 7 9 10 11 12 13
-10 -10 -10 -11 -11 -11 -12 -12 -13 -13 -13 -12 -11 -10 -10 -10 -10 -9 -9 -8 -7 -6 -6 -5 -5 -4 -3 -2 -1 1 3 5 6 8 10 11 12 13
-9 -10 -10 -11 -11 -11 -12 -12 -12 -12 -13 -12 -11 -11 -10 -10 -10 -9 -9 -8 -8 -7 -6 -5 -5 -4 -4 -3 -1 1 2 4 6 7 9 10 12 13
-9 -10 -10 -10 -11 -11 -12 -12 -12 -12 -12 -12 -11 -11 -11 -10 -10 -10 -9 -9 -8 -7 -6 -6 -5 -4 -3 -2 -1 0 2 4 5 7 9 10 11 12
-9 -10 -10 -11 -11 -11 -12 -12 -12 -11 -11 -12 -11 -11 -11 -10 -11 -10 -10 -9 -8 -7 -6 -5 -5 -4 -3 -2 -1 0 2 4 5 7 8 10 11 12
-9 -10 -10 -11 -11 -11 -11 -11 -11 -11 -11 -11 -11 -11 -11 -11 -11 -11 -10 -9 -8 -7 -6 -5 -5 -4 -3 -2 -1 1 2 3 5 6 8 9 10 11
-9 -9 -10 -11 -11 -11 -11 -11 -11 -11 -11 -11 -12 -12 -12 -12 -11 -11 -11 -10 -8 -7 -6 -6 -5 -4 -3 -2 -1 1 2 3 4 6 7 9 10 11
-9 -10 -10 -11 -11 -11 -11 -11 -11 -11 -11 -11 -12 -12 -12 -12 -12 -12 -12 -11 -11 -8 -8 -6 -5 -4 -3 -1 -0 1 2 3 4 6 7 8 9 10
-9 -10 -10 -11 -11 -11 -11 -11 -11 -11 -12 -12 -12 -12 -12 -12 -12 -12 -11 -11 -11 -10 -9 -6 -4 -4 -2 -1 -0 1 2 3 4 5 7 8 9 10
-9 -10 -10 -10 -10 -10 -10 -11 -11 -11 -12 -12 -12 -12 -12 -12 -12 -11 -11 -11 -10 -9 -10 -8 -4 -3 -2 -1 -0 1 2 3 4 5 7 8 9 10
-9 -10 -10 -10 -10 -10 -10 -11 -11 -11 -12 -12 -12 -12 -12 -12 -12 -12 -11 -12 -11 -9 -9 -8 -6 -4 -2 -1 -0 1 2 3 4 5 6 8 9 10
-9 -10 -10 -10 -10 -10 -10 -11 -11 -11 -12 -12 -13 -13 -13 -13 -12 -12 -12 -12 -12 -10 -8 -8 -6 -5 -2 -0 0 1 2 3 4 5 6 7 8 9
-10 -10 -10 -10 -10 -10 -11 -11 -11 -11 -12 -13 -13 -13 -13 -12 -12 -12 -12 -12 -11 -10 -8 -8 -6 -5 -4 -1 1 1 2 3 4 5 6 7 8 9
-10 -10 -10 -10 -10 -11 -11 -11 -11 -12 -12 -13 -13 -13 -13 -12 -12 -12 -11 -11 -10 -9 -8 -8 -7 -5 -4 -3 -0 1 2 3 4 5 6 7 8 9
-10 -10 -10 -10 -10 -10 -11 -11 -12 -12 -12 -13 -13 -13 -13 -12 -12 -11 -11 -10 -9 -8 -7 -6 -6 -5 -5 -3 -1 1 2 3 4 5 6 7 8 9
-9 -9 -10 -10 -10 -10 -10 -11 -11 -12 -12 -13 -13 -13 -12 -12 -11 -11 -10 -9 -8 -7 -6 -5 -5 -4 -4 -3 -2 0 2 3 4 5 6 7 8 9
-10 -9 -9 -9 -9 -10 -10 -10 -11 -11 -12 -12 -12 -12 -12 -12 -11 -10 -9 -8 -8 -6 -5 -5 -4 -4 -3 -2 -2 -0 1 3 4 5 6 7 8 9
-9 -9 -9 -9 -10 -10 -10 -10 -11 -11 -12 -12 -12 -12 -12 -12 -11 -10 -9 -8 -7 -6 -5 -4 -4 -3 -3 -2 -1 0 1 3 4 5 6 7 8 9
-9 -9 -9 -10 -10 -10 -10 -10 -11 -11 -11 -11 -12 -12 -12 -11 -11 -10 -9 -8 -6 -5 -4 -4 -3 -3 -2 -1 -0 1 2 3 4 5 6 7 8 9
-9 -9 -9 -9 -10 -10 -10 -10 -10 -11 -11 -11 -11 -11 -11 -11 -11 -10 -9 -8 -6 -5 -4 -3 -3 -2 -2 -1 -0 1 2 3 4 5 6 7 8 9
-9 -9 -9 -9 -10 -10 -10 -10 -10 -10 -11 -11 -11 -11 -11 -11 -10 -10 -9 -8 -6 -5 -4 -3 -2 -2 -2 -1 -0 1 2 3 4 5 6 7 8 9
-8 -9 -9 -9 -9 -10 -10 -10 -10 -10 -10 -10 -11 -11 -11 -11 -10 -10 -9 -8 -6 -5 -4 -3 -2 -2 -1 -0 0 1 2 3 4 5 6 7 8 9
-8 -9 -9 -9 -9 -9 -9 -10 -10 -10 -10 -10 -10 -10 -10 -10 -10 -9 -9 -8 -6 -5 -4 -3 -2 -1 -1 -0 -0 1 1 3 4 5 6 7 9 10
Wind_Speed
10 11 10 10 9 8 8 9 10 16 17 13 9 8 10 13 18 17 15 21 23 22 20 20 20 22 23 24 25 25 23 22 20 17 16 15 17 26
10 11 12 10 9 9 9 9 10 12 15 12 12 12 11 14 20 17 17 22 21 21 21 22 23 24 25 25 25 25 24 22 21 18 17 16 15 20
13 12 14 13 11 10 9 9 10 11 15 15 13 11 11 12 13 13 15 13 13 20 22 23 24 25 26 26 25 25 24 23 21 19 17 16 15 16
15 15 16 14 13 11 10 11 11 12 14 17 14 10 10 11 11 11 11 12 11 21 23 24 25 25 25 25 25 24 23 22 21 19 18 16 15 15
16 16 16 15 14 12 12 11 11 13 12 14 14 10 9 9 10 11 11 10 13 16 20 22 23 23 23 23 24 24 23 22 21 19 17 15 15 15
15 14 14 13 13 13 12 13 13 13 12 11 12 11 9 8 7 9 11 9 10 12 15 16 18 20 22 22 23 23 22 20 20 19 16 14 13 14
10 10 11 14 17 15 13 10 10 10 10 10 12 12 10 7 7 7 11 11 11 9 7 8 9 9 11 16 19 21 20 20 19 19 17 15 13 13
9 9 10 13 17 21 23 22 18 12 10 10 11 11 10 9 9 10 10 11 8 3 6 11 9 10 10 9 16 19 19 19 19 17 16 15 13 13
8 8 9 11 16 10 18 21 17 20 20 13 12 12 12 11 11 13 11 11 11 7 9 10 6 10 10 11 18 20 20 18 18 17 16 14 13 13
9 9 10 11 14 16 13 9 10 12 14 11 10 12 13 12 13 13 13 12 11 9 7 7 6 7 9 8 16 19 19 19 18 17 15 14 14 13
8 9 10 10 20 24 11 8 10 10 13 16 19 17 19 19 15 9 7 8 10 6 4 5 5 6 7 8 11 18 19 19 18 17 16 15 14 13
7 8 14 17 21 20 9 7 11 10 8 11 13 15 12 13 16 8 5 7 7 5 3 3 4 4 5 4 5 8 11 16 19 18 17 16 14 10
7 7 9 20 21 19 16 9 14 12 7 9 10 9 8 7 8 7 7 7 9 8 4 3 3 3 4 5 4 6 8 8 10 12 15 17 16 13
7 7 10 19 19 18 15 17 20 16 9 9 10 9 9 8 8 8 9 10 11 13 9 7 5 4 4 5 5 4 6 8 9 9 9 13 15 16
7 12 15 17 16 13 16 19 15 9 9 10 10 10 9 8 9 8 8 9 11 13 14 15 14 11 9 7 6 5 3 6 9 9 10 11 10 10
7 9 13 14 12 14 14 12 9 9 9 9 10 10 9 8 8 7 7 6 6 6 10 14 15 14 11 12 11 10 7 4 8 10 10 9 9 10
5 4 5 7 8 9 9 9 8 8 9 9 9 10 10 9 9 8 6 6 4 4 5 5 9 12 14 10 8 10 8 7 7 9 10 10 10 11
5 4 6 7 9 10 11 11 10 9 9 9 10 10 10 10 9 8 7 6 6 6 5 5 4 5 6 9 13 10 8 7 6 8 9 10 12 11
3 4 5 7 8 9 10 10 9 9 8 8 9 9 10 10 9 9 8 8 7 6 6 5 4 4 5 5 6 8 6 5 6 8 10 10 10 13
2 4 5 6 8 9 9 9 9 9 8 8 8 9 9 9 9 9 8 9 8 7 6 5 4 3 3 3 3 3 5 5 6 9 8 6 7 12
3 4 5 6 7 8 9 9 9 8 8 8 8 9 9 9 9 9 9 12 9 6 7 6 7 10 6 3 3 3 3 4 5 6 8 10 10 10
4 4 5 6 7 7 8 8 8 7 7 7 7 8 8 8 10 11 10 10 9 8 8 7 8 5 1 1 1 2 2 2 1 4 5 8 9 11
4 4 5 6 6 7 7 8 9 7 6 7 7 7 8 8 8 9 10 9 9 10 9 7 6 3 2 1 1 1 1 1 2 5 4 6 12 19
Wind_Direction
270 272 271 272 267 261 258 262 279 296 300 302 300 290 303 306 309 311 312 307 302 298 295 291 287 281 275 273 273 275 279 285 289 290 292 281 260 226
271 269 270 271 268 265 261 259 259 272 285 292 294 293 297 305 308 314 307 306 305 300 294 289 283 277 273 269 268 269 271 275 279 282 285 283 268 236
274 272 272 272 270 268 265 263 265 266 277 287 287 287 286 292 298 299 299 295 297 298 292 285 280 273 268 265 264 264 264 266 271 275 277 282 273 251
275 274 275 276 271 268 267 267 270 270 272 282 288 288 283 286 289 292 300 301 298 294 289 284 280 274 267 261 259 259 258 260 264 268 272 278 276 264
275 276 276 275 273 269 268 270 272 275 272 278 286 289 285 283 288 292 292 290 292 291 291 287 281 276 271 261 255 253 253 252 255 260 269 274 275 265
274 274 273 271 268 267 270 268 271 276 279 282 287 289 286 278 279 295 300 294 293 294 288 283 281 281 276 268 256 249 248 249 251 254 260 265 268 263
276 271 273 280 281 281 279 272 276 283 288 290 290 291 290 290 288 291 295 298 294 280 292 296 295 289 281 271 262 249 244 242 245 250 255 256 256 255
280 278 280 284 290 296 299 299 297 297 294 289 289 286 285 281 284 285 287 291 295 288 315 300 290 280 272 260 254 251 243 238 239 244 248 250 248 248
277 282 292 294 302 290 292 295 294 297 299 296 291 286 285 282 279 279 273 270 270 279 299 292 272 272 268 257 253 246 242 236 233 237 239 242 243 243
276 277 281 282 289 290 283 272 267 276 286 288 276 276 277 274 266 267 269 271 271 267 256 271 278 274 275 261 256 247 239 233 229 229 232 237 236 237
281 282 289 283 295 304 307 288 286 286 296 300 301 300 299 299 295 288 281 278 283 278 234 253 282 289 275 259 246 240 235 229 225 225 229 232 230 229
286 289 307 311 312 324 323 300 298 298 296 302 304 304 298 295 295 284 266 267 273 280 251 270 289 308 296 264 236 229 224 224 220 221 225 227 220 220
303 304 308 318 327 333 333 317 313 327 321 307 303 297 291 281 275 263 242 239 245 248 259 298 293 302 294 302 278 231 211 206 210 217 222 221 213 210
303 303 308 325 335 336 331 326 334 337 320 313 312 309 305 298 287 274 257 242 237 244 244 237 255 267 296 299 283 251 217 201 199 207 212 212 212 213
306 319 328 334 336 331 328 335 338 326 317 319 316 312 306 296 292 287 275 257 247 242 242 235 237 244 245 254 274 282 240 209 200 204 206 202 203 201
316 324 334 337 337 333 333 329 322 318 324 320 316 313 311 309 306 301 298 293 273 259 237 230 228 229 237 244 252 264 264 229 199 202 203 199 198 199
328 324 329 336 338 333 329 326 324 325 328 324 322 324 323 323 320 318 306 301 277 281 281 249 230 227 230 235 245 252 255 246 216 193 194 197 199 194
348 328 333 335 332 329 328 328 328 330 331 330 328 329 327 325 324 323 321 309 297 287 281 276 259 227 221 233 230 248 253 242 218 193 193 193 192 183
340 316 321 324 325 324 324 325 326 326 327 328 329 330 330 328 328 329 329 325 316 304 293 283 266 240 223 232 225 223 231 234 208 195 195 188 186 176
299 306 314 317 320 322 324 325 324 326 330 331 330 331 332 331 331 332 330 326 322 315 307 295 272 268 245 244 259 255 250 227 205 194 187 170 160 146
294 303 306 311 316 320 322 322 322 324 329 331 331 333 334 334 333 332 330 331 331 320 314 304 289 289 271 257 260 268 279 283 222 189 176 164 159 154
281 294 302 306 313 316 319 323 324 326 330 332 331 333 334 334 335 334 334 332 328 324 311 302 302 300 262 238 249 270 296 306 71 112 147 164 160 158
269 285 296 307 312 316 319 323 326 328 330 330 330 333 335 337 335 334 335 334 331 333 334 330 333 335 341 359 32 22 8 15 96 101 72 86 109 114
Height
1452 1448 1444 1440 1436 1432 1428 1424 1418 1407 1397 1392 1390 1387 1384 1380 1377 1374 1370 1368 1367 1367 1367 1368 1369 1370 1372 1373 1374 1377 1380 1384 1389 1396 1402 1408 1414 1419
1446 1441 1437 1432 1428 1424 1420 1417 1412 1406 1396 1388 1385 1382 1379 1376 1372 1369 1365 1363 1361 1360 1361 1362 1363 1364 1364 1365 1367 1370 1373 1378 1383 1389 1395 1401 1407 1413
1439 1434 1429 1425 1420 1416 1412 1409 1405 1400 1392 1383 1380 1376 1373 1370 1366 1362 1359 1356 1354 1353 1354 1354 1355 1356 1356 1358 1360 1363 1367 1372 1377 1382 1388 1395 1401 1407
1432 1426 1421 1416 1412 1408 1405 1401 1397 1393 1387 1379 1374 1370 1367 1364 1360 1356 1353 1350 1347 1346 1346 1346 1346 1347 1348 1350 1353 1356 1360 1365 1370 1376 1382 1388 1394 1400
1425 1419 1413 1409 1405 1401 1398 1394 1390 1386 1381 1375 1368 1364 1360 1357 1353 1350 1346 1343 1340 1338 1337 1337 1337 1338 1340 1342 1345 1349 1354 1359 1364 1370 1375 1381 1388 1394
1419 1413 1407 1403 1398 1394 1391 1387 1383 1379 1374 1369 1363 1358 1354 1350 1348 1343 1338 1335 1332 1331 1329 1329 1329 1330 1331 1334 1338 1341 1346 1351 1357 1363 1369 1375 1382 1388
1413 1408 1402 1397 1393 1389 1385 1381 1377 1372 1367 1362 1357 1352 1348 1345 1342 1338 1333 1328 1325 1323 1322 1322 1321 1321 1323 1326 1329 1334 1339 1345 1351 1357 1363 1370 1376 1382
1408 1402 1397 1392 1387 1383 1379 1375 1372 1367 1361 1356 1350 1346 1341 1338 1335 1332 1328 1324 1320 1319 1317 1315 1315 1314 1316 1319 1323 1327 1332 1338 1344 1350 1357 1364 1370 1377
1403 1397 1391 1386 1382 1377 1372 1368 1364 1360 1356 1351 1344 1339 1335 1331 1329 1325 1323 1320 1316 1314 1313 1307 1309 1308 1310 1313 1316 1321 1326 1332 1338 1344 1351 1358 1365 1371
1399 1393 1387 1381 1377 1371 1366 1361 1357 1353 1348 1343 1338 1332 1328 1325 1322 1320 1317 1314 1311 1309 1309 1304 1303 1303 1305 1306 1310 1314 1319 1325 1331 1338 1345 1352 1359 1366
1394 1389 1383 1378 1372 1367 1362 1356 1351 1346 1341 1336 1331 1326 1322 1318 1316 1314 1311 1309 1305 1303 1304 1302 1299 1299 1299 1300 1304 1308 1313 1319 1325 1332 1339 1346 1354 1360
1389 1385 1380 1374 1369 1364 1358 1352 1346 1340 1334 1328 1323 1318 1314 1310 1308 1307 1304 1303 1301 1299 1298 1299 1297 1297 1296 1297 1300 1303 1308 1313 1319 1326 1333 1341 1348 1355
1385 1380 1376 1371 1366 1361 1355 1349 1343 1337 1329 1323 1317 1312 1308 1304 1302 1300 1298 1297 1296 1294 1295 1296 1294 1294 1294 1294 1295 1299 1302 1307 1313 1320 1327 1334 1342 1348
1382 1377 1372 1368 1363 1357 1352 1347 1341 1333 1326 1320 1314 1308 1303 1299 1296 1294 1292 1290 1289 1288 1290 1291 1290 1291 1291 1291 1292 1294 1298 1302 1308 1314 1321 1328 1335 1342
1379 1375 1370 1365 1360 1354 1349 1344 1337 1330 1324 1317 1310 1305 1299 1295 1291 1288 1286 1284 1283 1282 1283 1284 1285 1287 1288 1288 1288 1290 1293 1297 1302 1309 1315 1322 1329 1336
1376 1372 1368 1363 1358 1353 1347 1341 1335 1329 1323 1316 1308 1302 1296 1292 1288 1285 1282 1280 1279 1278 1279 1280 1281 1282 1283 1283 1284 1285 1288 1292 1297 1303 1310 1317 1324 1332
1374 1370 1366 1361 1356 1350 1345 1339 1333 1327 1321 1314 1307 1300 1294 1290 1285 1282 1279 1277 1276 1275 1275 1276 1276 1277 1279 1280 1280 1281 1283 1287 1292 1298 1305 1312 1319 1326
1372 1368 1364 1359 1354 1349 1344 1338 1333 1327 1320 1314 1307 1300 1294 1288 1284 1280 1278 1275 1273 1272 1271 1271 1272 1274 1275 1276 1276 1276 1278 1281 1287 1293 1300 1306 1313 1321
1370 1367 1363 1358 1354 1349 1344 1338 1333 1327 1321 1314 1307 1301 1294 1289 1284 1279 1276 1273 1271 1270 1269 1268 1268 1269 1270 1271 1271 1272 1273 1276 1281 1287 1293 1301 1308 1316
1368 1365 1362 1358 1353 1349 1344 1339 1333 1327 1321 1315 1308 1302 1295 1289 1284 1279 1276 1273 1270 1268 1267 1266 1266 1265 1265 1266 1267 1267 1269 1272 1276 1282 1288 1296 1305 1314
1367 1364 1361 1357 1353 1349 1344 1339 1333 1328 1322 1316 1309 1303 1296 1291 1285 1280 1276 1273 1270 1268 1266 1264 1264 1264 1263 1263 1263 1263 1265 1267 1271 1276 1282 1289 1297 1306
1364 1362 1360 1357 1353 1349 1344 1339 1334 1328 1323 1317 1311 1305 1299 1293 1287 1282 1277 1273 1269 1267 1265 1264 1263 1262 1262 1263 1262 1261 1262 1264 1267 1273 1279 1285 1289 1298
1362 1361 1359 1356 1353 1349 1344 1339 1334 1329 1324 1319 1313 1307 1301 1295 1290 1284 1280 1275 1271 1268 1265 1263 1262 1262 1261 1261 1261 1261 1261 1262 1265 1269 1275 1282 1290 1298